ETH879 HAAB-FSIA

Flight info

Callsign ETH879
Flight time N/A
Altitude 41000
Route IMKIT1A IMKIT UQ555 MAV UM313 EGLOM/N0485F400 UM313 MOGUD/N0483F410 DCT XABAL T154 UNBED
Aircraft A359/H-SDE2E3GHIJ3J4J5LM1ORWXY/LB1D1

Departure

Time N/A
Airport Addis Ababa Bole International Airport (HAAB)

Arrival

Time 2026-04-26 11:32
Airport Seychelles International Airport (FSIA)
Time Latitude Longitude Altitude Speed Heading
2026-04-26 10:17 0.21817 48.27197 40889 ft 481 kts 118°
2026-04-26 10:18 0.18332 48.32903 40887 ft 481 kts 118°
2026-04-26 10:18 0.14853 48.38606 40887 ft 481 kts 118°
2026-04-26 10:19 0.11390 48.44271 40889 ft 481 kts 118°
2026-04-26 10:19 0.07907 48.49967 40885 ft 480 kts 118°
2026-04-26 10:20 0.05014 48.54702 40884 ft 480 kts 118°
2026-04-26 10:20 0.00945 48.61362 40888 ft 480 kts 118°
2026-04-26 10:21 -0.02537 48.67063 40882 ft 482 kts 118°
2026-04-26 10:21 -0.06016 48.72759 40885 ft 484 kts 118°
2026-04-26 10:22 -0.09546 48.78537 40883 ft 484 kts 118°
2026-04-26 10:22 -0.13029 48.84238 40882 ft 484 kts 118°
2026-04-26 10:23 -0.16537 48.89980 40886 ft 484 kts 118°
2026-04-26 10:23 -0.20044 48.95721 40883 ft 484 kts 118°
2026-04-26 10:24 -0.23550 49.01460 40885 ft 484 kts 118°
2026-04-26 10:24 -0.27058 49.07203 40884 ft 484 kts 118°
2026-04-26 10:25 -0.30545 49.12912 40883 ft 485 kts 119°
2026-04-26 10:25 -0.34044 49.18652 40888 ft 483 kts 119°
2026-04-26 10:26 -0.37547 49.24383 40894 ft 483 kts 119°
2026-04-26 10:26 -0.41049 49.30110 40885 ft 483 kts 119°
2026-04-26 10:27 -0.44554 49.35844 40883 ft 483 kts 119°
2026-04-26 10:27 -0.47943 49.41393 40875 ft 483 kts 119°
2026-04-26 10:28 -0.51421 49.47086 40884 ft 483 kts 119°
2026-04-26 10:28 -0.54923 49.52821 40885 ft 483 kts 119°
2026-04-26 10:29 -0.58423 49.58551 40882 ft 483 kts 118°
2026-04-26 10:29 -0.61923 49.64282 40872 ft 483 kts 119°
2026-04-26 10:30 -0.65401 49.69977 40879 ft 483 kts 119°
2026-04-26 10:30 -0.68902 49.75710 40877 ft 483 kts 119°
2026-04-26 10:31 -0.72407 49.81449 40884 ft 484 kts 119°
2026-04-26 10:31 -0.75919 49.87200 40884 ft 485 kts 119°
2026-04-26 10:32 -0.79430 49.92950 40873 ft 485 kts 119°
2026-04-26 10:32 -0.82918 49.98662 40875 ft 485 kts 119°
2026-04-26 10:33 -0.86436 50.04424 40875 ft 486 kts 119°
2026-04-26 10:33 -0.89958 50.10193 40880 ft 487 kts 119°
2026-04-26 10:34 -0.93488 50.15975 40892 ft 488 kts 119°
2026-04-26 10:34 -0.97021 50.21761 40888 ft 488 kts 119°
2026-04-26 10:35 -1.00537 50.27521 40875 ft 489 kts 119°
2026-04-26 10:35 -1.04079 50.33323 40874 ft 489 kts 119°
2026-04-26 10:36 -1.07619 50.39122 40882 ft 489 kts 119°
2026-04-26 10:36 -1.11162 50.44926 40875 ft 489 kts 119°
2026-04-26 10:37 -1.14709 50.50737 40888 ft 490 kts 119°
2026-04-26 10:37 -1.18232 50.56510 40890 ft 490 kts 119°
2026-04-26 10:38 -1.21790 50.62347 40896 ft 493 kts 118°
2026-04-26 10:38 -1.25369 50.68212 40885 ft 494 kts 118°
2026-04-26 10:39 -1.28935 50.74054 40872 ft 492 kts 118°
2026-04-26 10:39 -1.32496 50.79887 40868 ft 492 kts 118°
2026-04-26 10:40 -1.36036 50.85687 40871 ft 492 kts 118°
2026-04-26 10:40 -1.39596 50.91526 40870 ft 493 kts 118°
2026-04-26 10:41 -1.43171 50.97395 40883 ft 495 kts 118°
2026-04-26 10:41 -1.46759 51.03275 40873 ft 495 kts 118°
2026-04-26 10:42 -1.50346 51.09149 40866 ft 495 kts 118°
2026-04-26 10:42 -1.53928 51.15017 40865 ft 494 kts 118°
2026-04-26 10:43 -1.57510 51.20891 40864 ft 494 kts 118°
2026-04-26 10:43 -1.61089 51.26760 40866 ft 494 kts 118°
2026-04-26 10:44 -1.64645 51.32591 40865 ft 494 kts 118°
2026-04-26 10:44 -1.68220 51.38455 40864 ft 494 kts 118°
2026-04-26 10:45 -1.71795 51.44318 40864 ft 494 kts 118°
2026-04-26 10:45 -1.75368 51.50179 40864 ft 494 kts 118°
2026-04-26 10:46 -1.78943 51.56044 40865 ft 494 kts 118°
2026-04-26 10:46 -1.82517 51.61908 40863 ft 494 kts 118°
2026-04-26 10:47 -1.86070 51.67737 40870 ft 494 kts 118°
2026-04-26 10:47 -1.89646 51.73605 40883 ft 494 kts 118°
2026-04-26 10:48 -1.93222 51.79473 40862 ft 494 kts 118°
2026-04-26 10:48 -1.96796 51.85339 40873 ft 494 kts 118°
2026-04-26 10:49 -2.00368 51.91202 40867 ft 494 kts 118°
2026-04-26 10:49 -2.03915 51.97025 40859 ft 494 kts 118°
2026-04-26 10:50 -2.06884 52.01899 40864 ft 494 kts 118°
2026-04-26 10:50 -2.11060 52.08757 40864 ft 494 kts 118°
2026-04-26 10:51 -2.16417 52.17553 40859 ft 494 kts 118°
2026-04-26 10:52 -2.19960 52.23372 40862 ft 493 kts 118°
2026-04-26 10:52 -2.23528 52.29232 40852 ft 493 kts 118°
2026-04-26 10:53 -2.27102 52.35104 40857 ft 494 kts 118°
2026-04-26 10:53 -2.30673 52.40972 40865 ft 494 kts 118°
2026-04-26 10:54 -2.36012 52.49745 40865 ft 494 kts 118°
2026-04-26 10:54 -2.39586 52.55618 40861 ft 494 kts 118°
2026-04-26 10:55 -2.43161 52.61493 40858 ft 494 kts 119°
2026-04-26 10:55 -2.46122 52.66361 40858 ft 493 kts 119°
2026-04-26 10:56 -2.50283 52.73200 40870 ft 492 kts 119°
2026-04-26 10:56 -2.53837 52.79045 40859 ft 492 kts 119°
2026-04-26 10:57 -2.57373 52.84860 40865 ft 492 kts 119°
2026-04-26 10:57 -2.60952 52.90688 40863 ft 492 kts 120°
2026-04-26 10:58 -2.64577 52.96506 40866 ft 492 kts 120°
2026-04-26 10:58 -2.68196 53.02319 40864 ft 492 kts 119°
2026-04-26 10:59 -2.71789 53.08105 40866 ft 493 kts 119°
2026-04-26 10:59 -2.75405 53.13937 40866 ft 493 kts 119°
2026-04-26 11:00 -2.79018 53.19765 40859 ft 493 kts 119°
2026-04-26 11:00 -2.82634 53.25598 40866 ft 493 kts 119°
2026-04-26 11:01 -2.86248 53.31428 40866 ft 493 kts 119°
2026-04-26 11:01 -2.89864 53.37264 40864 ft 493 kts 119°
2026-04-26 11:02 -2.93457 53.43060 40868 ft 493 kts 119°
2026-04-26 11:02 -2.97071 53.48894 40865 ft 493 kts 119°
2026-04-26 11:03 -3.00685 53.54729 40865 ft 493 kts 119°
2026-04-26 11:03 -3.03942 53.59976 40856 ft 493 kts 120°
2026-04-26 11:04 -3.08264 53.65339 40875 ft 496 kts 129°
2026-04-26 11:04 -3.12797 53.70421 40865 ft 491 kts 131°
2026-04-26 11:05 -3.17382 53.75485 40855 ft 491 kts 130°
2026-04-26 11:05 -3.21962 53.80571 40863 ft 492 kts 130°
2026-04-26 11:06 -3.25766 53.84806 40781 ft 493 kts 130°
2026-04-26 11:06 -3.28836 53.88223 40284 ft 493 kts 130°
2026-04-26 11:06 -3.31131 53.90779 39805 ft 494 kts 131°
2026-04-26 11:07 -3.33433 53.93345 39271 ft 497 kts 131°
2026-04-26 11:07 -3.35715 53.95891 38709 ft 499 kts 131°
2026-04-26 11:07 -3.38038 53.98486 38076 ft 502 kts 131°
2026-04-26 11:07 -3.40374 54.01093 37402 ft 504 kts 131°
2026-04-26 11:08 -3.42723 54.03712 36723 ft 506 kts 131°
2026-04-26 11:08 -3.45072 54.06333 36025 ft 507 kts 131°
2026-04-26 11:08 -3.47432 54.08965 35367 ft 509 kts 131°
2026-04-26 11:08 -3.49796 54.11600 34737 ft 509 kts 131°
2026-04-26 11:09 -3.52169 54.14247 34103 ft 510 kts 131°
2026-04-26 11:09 -3.54543 54.16895 33409 ft 512 kts 132°
2026-04-26 11:09 -3.56891 54.19512 32729 ft 512 kts 132°
2026-04-26 11:09 -3.59276 54.22169 32046 ft 513 kts 132°
2026-04-26 11:10 -3.61662 54.24830 31375 ft 514 kts 132°
2026-04-26 11:10 -3.64051 54.27493 30601 ft 514 kts 132°
2026-04-26 11:10 -3.66440 54.30158 29806 ft 513 kts 132°
2026-04-26 11:10 -3.68810 54.32804 29075 ft 508 kts 132°
2026-04-26 11:11 -3.71156 54.35423 28402 ft 503 kts 132°
2026-04-26 11:11 -3.73480 54.38017 27733 ft 497 kts 132°
2026-04-26 11:11 -3.75776 54.40580 27077 ft 492 kts 132°
2026-04-26 11:11 -3.78023 54.43089 26422 ft 488 kts 132°
2026-04-26 11:12 -3.80267 54.45595 25760 ft 476 kts 132°
2026-04-26 11:12 -3.82455 54.48038 25123 ft 468 kts 132°
2026-04-26 11:12 -3.84638 54.50477 24502 ft 469 kts 131°
2026-04-26 11:12 -3.86804 54.52899 23894 ft 465 kts 131°
2026-04-26 11:13 -3.88954 54.55305 23246 ft 461 kts 131°
2026-04-26 11:13 -3.91086 54.57687 22538 ft 457 kts 131°
2026-04-26 11:13 -3.93194 54.60039 21908 ft 451 kts 131°
2026-04-26 11:13 -3.95273 54.62359 21291 ft 445 kts 131°
2026-04-26 11:14 -3.97324 54.64650 20675 ft 439 kts 131°
2026-04-26 11:14 -3.99352 54.66914 20057 ft 434 kts 131°
2026-04-26 11:14 -4.01326 54.69120 19450 ft 429 kts 131°
2026-04-26 11:14 -4.02667 54.70618 19044 ft 426 kts 131°
2026-04-26 11:15 -4.05280 54.73538 18101 ft 424 kts 131°
2026-04-26 11:15 -4.07209 54.75695 17337 ft 407 kts 131°
2026-04-26 11:15 -4.09092 54.77800 16707 ft 405 kts 131°
2026-04-26 11:15 -4.10976 54.79907 16067 ft 403 kts 131°
2026-04-26 11:16 -4.12839 54.81991 15438 ft 401 kts 131°
2026-04-26 11:16 -4.14691 54.84063 14806 ft 398 kts 131°
2026-04-26 11:16 -4.16533 54.86123 14178 ft 396 kts 131°
2026-04-26 11:16 -4.18363 54.88170 13538 ft 393 kts 131°
2026-04-26 11:17 -4.20154 54.90173 12884 ft 389 kts 131°
2026-04-26 11:17 -4.21952 54.92184 12255 ft 386 kts 132°
2026-04-26 11:17 -4.23716 54.94158 11644 ft 371 kts 132°
2026-04-26 11:17 -4.25370 54.96009 11440 ft 340 kts 132°
2026-04-26 11:18 -4.26877 54.97696 11307 ft 313 kts 132°
2026-04-26 11:18 -4.28307 54.99297 11184 ft 304 kts 132°
2026-04-26 11:18 -4.29714 55.00872 11070 ft 304 kts 132°
2026-04-26 11:18 -4.31129 55.02454 10958 ft 305 kts 132°
2026-04-26 11:19 -4.32522 55.04012 10839 ft 305 kts 132°
2026-04-26 11:19 -4.33936 55.05594 10690 ft 304 kts 132°
2026-04-26 11:19 -4.35346 55.07172 10394 ft 303 kts 132°
2026-04-26 11:19 -4.36751 55.08745 10062 ft 302 kts 132°
2026-04-26 11:20 -4.38039 55.10398 9710 ft 302 kts 121°
2026-04-26 11:20 -4.38616 55.11669 9409 ft 302 kts 107°
2026-04-26 11:20 -4.39116 55.14411 8908 ft 298 kts 97°
2026-04-26 11:20 -4.39353 55.16465 8562 ft 297 kts 97°
2026-04-26 11:21 -4.39576 55.18524 8202 ft 297 kts 97°
2026-04-26 11:21 -4.39789 55.20537 7991 ft 290 kts 97°
2026-04-26 11:21 -4.39995 55.22488 7748 ft 273 kts 97°
2026-04-26 11:21 -4.40191 55.24347 7300 ft 264 kts 97°
2026-04-26 11:22 -4.40380 55.26156 6948 ft 259 kts 97°
2026-04-26 11:22 -4.40567 55.27945 6633 ft 257 kts 97°
2026-04-26 11:22 -4.40751 55.29699 6429 ft 246 kts 97°
2026-04-26 11:22 -4.40925 55.31371 6078 ft 238 kts 97°
2026-04-26 11:23 -4.41094 55.32987 5878 ft 230 kts 97°
2026-04-26 11:23 -4.41260 55.34573 5785 ft 228 kts 97°
2026-04-26 11:23 -4.41370 55.35619 5709 ft 228 kts 97°
2026-04-26 11:23 -4.41591 55.37736 5549 ft 229 kts 97°
2026-04-26 11:24 -4.41754 55.39297 5431 ft 228 kts 97°
2026-04-26 11:24 -4.41920 55.40881 5248 ft 228 kts 97°
2026-04-26 11:24 -4.42083 55.42453 5013 ft 227 kts 98°
2026-04-26 11:24 -4.42262 55.44018 4753 ft 225 kts 100°
2026-04-26 11:25 -4.42842 55.45439 4539 ft 220 kts 132°
2026-04-26 11:25 -4.44069 55.46241 4385 ft 206 kts 168°
2026-04-26 11:25 -4.45417 55.46366 4275 ft 190 kts 181°
2026-04-26 11:25 -4.46695 55.46357 4134 ft 177 kts 182°
2026-04-26 11:26 -4.47878 55.46344 3945 ft 162 kts 182°
2026-04-26 11:26 -4.48959 55.46336 3668 ft 150 kts 182°
2026-04-26 11:26 -4.49988 55.46330 3328 ft 147 kts 182°
2026-04-26 11:26 -4.51004 55.46326 3065 ft 142 kts 181°
2026-04-26 11:27 -4.51951 55.46325 2981 ft 133 kts 181°
2026-04-26 11:27 -4.52563 55.46324 2976 ft 134 kts 181°
2026-04-26 11:27 -4.53503 55.46331 2929 ft 135 kts 181°
2026-04-26 11:27 -4.54753 55.46343 2860 ft 136 kts 181°
2026-04-26 11:28 -4.55710 55.46351 2715 ft 139 kts 181°
2026-04-26 11:28 -4.56678 55.46360 2511 ft 138 kts 181°
2026-04-26 11:28 -4.57637 55.46367 2329 ft 138 kts 181°
2026-04-26 11:28 -4.58278 55.46374 2216 ft 139 kts 181°
2026-04-26 11:29 -4.59240 55.46376 2022 ft 138 kts 181°
2026-04-26 11:29 -4.60202 55.46377 1822 ft 137 kts 182°
2026-04-26 11:29 -4.61155 55.46377 1653 ft 137 kts 181°
2026-04-26 11:29 -4.62106 55.46415 1411 ft 137 kts 175°
2026-04-26 11:30 -4.63293 55.46836 1140 ft 138 kts 155°
2026-04-26 11:30 -4.63827 55.47204 1002 ft 139 kts 143°
2026-04-26 11:30 -4.64673 55.48163 748 ft 141 kts 126°
2026-04-26 11:30 -4.65051 55.48706 642 ft 141 kts 125°
2026-04-26 11:31 -4.65598 55.49537 446 ft 143 kts 127°
2026-04-26 11:31 -4.66161 55.50344 289 ft 144 kts 127°
2026-04-26 11:31 -4.66731 55.51160 95 ft 141 kts 128°
2026-04-26 11:31 -4.67271 55.51932 29 ft 121 kts 125°
2026-04-26 11:32 -4.67673 55.52520 27 ft 83 kts 124°
2026-04-26 11:32 -4.67924 55.52886 27 ft 44 kts 124°
2026-04-26 11:32 -4.68035 55.53048 29 ft 19 kts 124°
2026-04-26 11:32 -4.68109 55.53137 29 ft 17 kts 145°
2026-04-26 11:33 -4.68232 55.53176 28 ft 19 kts 158°
2026-04-26 11:33 -4.68249 55.53238 28 ft 7 kts 56°
2026-04-26 11:33 -4.68193 55.53254 28 ft 10 kts 344°
2026-04-26 11:33 -4.68131 55.53192 28 ft 15 kts 305°
2026-04-26 11:34 -4.68072 55.53102 29 ft 17 kts 305°
2026-04-26 11:34 -4.68001 55.52999 29 ft 19 kts 306°
2026-04-26 11:34 -4.67917 55.52880 27 ft 22 kts 305°
2026-04-26 11:34 -4.67827 55.52747 27 ft 24 kts 304°
2026-04-26 11:35 -4.67728 55.52603 29 ft 26 kts 305°
2026-04-26 11:35 -4.67621 55.52448 28 ft 28 kts 304°
2026-04-26 11:35 -4.67509 55.52285 28 ft 29 kts 304°
2026-04-26 11:35 -4.67392 55.52116 29 ft 30 kts 305°
2026-04-26 11:36 -4.67270 55.51938 29 ft 32 kts 304°
2026-04-26 11:36 -4.67144 55.51754 28 ft 32 kts 304°
2026-04-26 11:36 -4.67030 55.51589 28 ft 25 kts 305°
2026-04-26 11:36 -4.66952 55.51477 28 ft 17 kts 306°
2026-04-26 11:37 -4.66909 55.51413 28 ft 7 kts 299°
2026-04-26 11:37 -4.66910 55.51366 28 ft 7 kts 240°
2026-04-26 11:37 -4.66957 55.51326 27 ft 11 kts 216°
2026-04-26 11:37 -4.67017 55.51273 27 ft 10 kts 224°
2026-04-26 11:38 -4.67047 55.51248 27 ft 0 kts 216°
2026-04-26 11:38 -4.67050 55.51246 27 ft 2 kts 214°
2026-04-26 11:38 -4.67071 55.51232 27 ft 4 kts 214°
2026-04-26 11:38 -4.67077 55.51228 27 ft 0 kts 214°
2026-04-26 11:42 -4.67078 55.51227 27 ft 0 kts 215°